Regional Weather Roundup
Issued by NWS

Home | Current Version | Previous Version | Graphics & Text | Print | Product List | Glossary On
Versions: 1 2 3 4 5 6 7 8 9 10 11 12 13 14 15 16 17 18 19 20 21 22 23 24 25 26 27 28 29 30 31 32 33 34 35 36 37 38 39 40 41 42 43 44 45 46 47 48 49 50
000
ASUS43 KFSD 010010
RWRSD

WEATHER ROUNDUP FOR SOUTH DAKOTA
NATIONAL WEATHER SERVICE SIOUX FALLS SD
700 PM CDT MON AUG 31 2015

NOTE: "FAIR" INDICATES FEW OR NO CLOUDS BELOW 12,000 FEET WITH NO
SIGNIFICANT WEATHER AND/OR OBSTRUCTIONS TO VISIBILITY.


SDZ001>005-009-010-012>017-010100-
NORTHWEST AND NORTH CENTRAL SOUTH DAKOTA

CITY           SKY/WX    TMP DP  RH WIND       PRES   REMARKS
BUFFALO          N/A     78  45  30 SE5       29.87S
FAITH            N/A     75  51  43 SE5       29.93R
MOBRIDGE       CLOUDY    79  57  46 N5        29.87R
$$

SDZ012>016-024>037-041>051-057-063-072>074-010100-
SOUTHWEST AND SOUTH CENTRAL SOUTH DAKOTA

CITY           SKY/WX    TMP DP  RH WIND       PRES   REMARKS
RAPID CTY ARPT PTSUNNY   71  59  65 SE6       29.95F
PIERRE         PTSUNNY   76  62  62 NE3       29.88S
CUSTER         PTSUNNY   66  52  60 S5        30.07S
ELLSWORTH AFB  PTSUNNY   72  58  60 SE12      29.94S
PHILIP         PTSUNNY   76  60  57 SE8       29.91F
PINE RIDGE     PTSUNNY   77  56  48 SE8       29.96F
WINNER         FAIR      79  61  53 NW5       29.92R
$$

SDZ004>011-016>023-039-040-010100-
NORTHEAST SOUTH DAKOTA

CITY           SKY/WX    TMP DP  RH WIND       PRES   REMARKS
ABERDEEN       PTSUNNY   76  64  66 N6        29.85F
WATERTOWN      MOSUNNY   79  66  64 N6        29.86F
BROOKINGS      SUNNY     81  70  69 S7        29.88F
SISSETON         N/A     76  66  71 N5        29.83F
$$

SDZ017-020-022-023-036>040-048>070-010100-
SOUTHEAST SOUTH DAKOTA

CITY           SKY/WX    TMP DP  RH WIND       PRES   REMARKS
SIOUX FALLS    MOSUNNY   81  69  67 S12       29.86F
HURON          PTSUNNY   76  67  73 N5        29.85R HAZE
CHAMBERLAIN    PTSUNNY   77  65  65 NE3       29.89S
MITCHELL       MOSUNNY   78  69  73 N5        29.85F
YANKTON        SUNNY     82  68  61 S12       29.84S
$$

ABBREVIATIONS USED IN REMARKS
   TC - TEMPERATURE IN CELSIUS
  WCI - WIND CHILL INDEX
   HX - HEAT INDEX
  VSB - VISIBILITY



USA.gov is the U.S. government's official web portal to all federal, state and local government web resources and services.